When you browse on this site, cookies collect data to enhance your experience and personalize the content and advertising you see.
Visit our Privacy Policy to learn more. By continuing to use the site, you agree to this use of cookies and data.

Hourly Weather Kaprun

Today, 13 August, Thursday

Time Temperature Precipitation Wind Pressure Humidity
00:00 +10°C° 0 mm 1 mps 600 mmHg 86%
01:00 +10°C° 0 mm 1 mps 600 mmHg 85%
02:00 +10°C° 0 mm 1 mps 600 mmHg 85%
03:00 +10°C° 0 mm 1 mps 600 mmHg 84%
04:00 +10°C° 0 mm 1 mps 599 mmHg 84%
05:00 +11°C° 0 mm 1 mps 600 mmHg 82%
06:00 +13°C° 0 mm 1 mps 601 mmHg 80%
07:00 +14°C° 0 mm 1 mps 602 mmHg 78%
08:00 +16°C° 0.2 mm 1 mps 602 mmHg 73%
09:00 +18°C° 0.2 mm 1 mps 603 mmHg 67%
10:00 +20°C° 0.2 mm 1 mps 603 mmHg 61%
11:00 +19°C° 1.3 mm 1 mps 603 mmHg 65%
12:00 +19°C° 1.3 mm 1 mps 602 mmHg 69%
13:00 +18°C° 1.3 mm 1 mps 602 mmHg 73%
14:00 +18°C° 2.2 mm 1 mps 602 mmHg 76%
15:00 +16°C° 2.2 mm 1 mps 601 mmHg 79%
16:00 +16°C° 2.2 mm 1 mps 601 mmHg 82%
17:00 +15°C° 0.6 mm 1 mps 600 mmHg 85%
18:00 +14°C° 0.6 mm 1 mps 600 mmHg 89%
19:00 +11°C° 0.6 mm 0 mps 600 mmHg 92%
20:00 +12°C° 0.3 mm 1 mps 600 mmHg 93%
21:00 +11°C° 0.3 mm 1 mps 600 mmHg 93%
22:00 +11°C° 0.3 mm 1 mps 599 mmHg 94%
23:00 +11°C° 0.1 mm 1 mps 599 mmHg 93%

Tomorrow, 14 August, Friday

Time Temperature Precipitation Wind Pressure Humidity
00:00 +10°C° 0.1 mm 1 mps 599 mmHg 93%
01:00 +10°C° 0.1 mm 1 mps 599 mmHg 93%
02:00 +10°C° 0 mm 1 mps 599 mmHg 92%
03:00 +10°C° 0 mm 1 mps 599 mmHg 92%
04:00 +10°C° 0 mm 1 mps 599 mmHg 92%
05:00 +11°C° 0.4 mm 1 mps 599 mmHg 91%
06:00 +11°C° 0.4 mm 1 mps 599 mmHg 91%
07:00 +12°C° 0.4 mm 1 mps 599 mmHg 91%
08:00 +12°C° 0.8 mm 1 mps 599 mmHg 90%
09:00 +12°C° 0.8 mm 1 mps 599 mmHg 90%
10:00 +12°C° 0.8 mm 1 mps 599 mmHg 89%
11:00 +12°C° 0.6 mm 1 mps 599 mmHg 89%
12:00 +12°C° 0.6 mm 1 mps 599 mmHg 88%
13:00 +12°C° 0.6 mm 1 mps 599 mmHg 88%
14:00 +12°C° 0.4 mm 1 mps 599 mmHg 88%
15:00 +12°C° 0.4 mm 1 mps 599 mmHg 88%
16:00 +12°C° 0.4 mm 1 mps 599 mmHg 88%
17:00 +12°C° 0.4 mm 1 mps 599 mmHg 89%
18:00 +11°C° 0.4 mm 1 mps 599 mmHg 91%
19:00 +11°C° 0.4 mm 1 mps 598 mmHg 93%
20:00 +10°C° 0.1 mm 1 mps 599 mmHg 92%
21:00 +10°C° 0.1 mm 1 mps 599 mmHg 92%
22:00 +10°C° 0.1 mm 1 mps 599 mmHg 91%
23:00 +10°C° 0 mm 1 mps 599 mmHg 90%

Day after tomorrow, 15 August, Saturday

Time Temperature Precipitation Wind Pressure Humidity
00:00 +9°C° 0 mm 1 mps 599 mmHg 89%
01:00 +9°C° 0 mm 1 mps 598 mmHg 88%
02:00 +9°C° 0 mm 1 mps 598 mmHg 88%
03:00 +9°C° 0 mm 1 mps 598 mmHg 88%
04:00 +9°C° 0 mm 1 mps 598 mmHg 88%
05:00 +9°C° 0 mm 1 mps 599 mmHg 87%
06:00 +10°C° 0 mm 1 mps 599 mmHg 86%
07:00 +11°C° 0 mm 1 mps 599 mmHg 85%
08:00 +13°C° 0 mm 1 mps 600 mmHg 75%
09:00 +15°C° 0 mm 1 mps 601 mmHg 65%
10:00 +18°C° 0 mm 1 mps 602 mmHg 55%
11:00 +19°C° 0 mm 1 mps 602 mmHg 51%
12:00 +19°C° 0 mm 1 mps 602 mmHg 48%
13:00 +20°C° 0 mm 1 mps 602 mmHg 44%
14:00 +20°C° 0.1 mm 1 mps 602 mmHg 48%
15:00 +18°C° 0.1 mm 2 mps 601 mmHg 51%
16:00 +18°C° 0.1 mm 2 mps 601 mmHg 55%
17:00 +16°C° 0.6 mm 1 mps 600 mmHg 67%
18:00 +14°C° 0.6 mm 1 mps 599 mmHg 79%
19:00 +11°C° 0.6 mm 0 mps 598 mmHg 91%
20:00 +11°C° 0.4 mm 1 mps 598 mmHg 91%
21:00 +10°C° 0.4 mm 1 mps 598 mmHg 91%
22:00 +9°C° 0.4 mm 1 mps 598 mmHg 90%
23:00 +9°C° 0 mm 1 mps 597 mmHg 90%

16 August, Sunday

Time Temperature Precipitation Wind Pressure Humidity
00:00 +8°C° 0 mm 1 mps 597 mmHg 90%
01:00 +8°C° 0 mm 1 mps 597 mmHg 89%
02:00 +8°C° 0 mm 1 mps 597 mmHg 89%
03:00 +7°C° 0 mm 1 mps 597 mmHg 89%
04:00 +6°C° 0 mm 0 mps 596 mmHg 88%
05:00 +8°C° 0 mm 0 mps 597 mmHg 85%
06:00 +10°C° 0 mm 0 mps 598 mmHg 81%
07:00 +11°C° 0 mm 0 mps 599 mmHg 78%
08:00 +13°C° 0 mm 0 mps 600 mmHg 70%
09:00 +16°C° 0 mm 1 mps 601 mmHg 61%
10:00 +19°C° 0 mm 1 mps 602 mmHg 53%
11:00 +20°C° 0.1 mm 1 mps 602 mmHg 52%
12:00 +20°C° 0.1 mm 1 mps 602 mmHg 50%
13:00 +20°C° 0.1 mm 2 mps 602 mmHg 48%
14:00 +20°C° 1 mm 1 mps 601 mmHg 54%
15:00 +19°C° 1 mm 1 mps 601 mmHg 60%
16:00 +18°C° 1 mm 1 mps 600 mmHg 66%
17:00 +16°C° 1.2 mm 1 mps 600 mmHg 73%
18:00 +14°C° 1.2 mm 1 mps 599 mmHg 80%
19:00 +12°C° 1.2 mm 0 mps 599 mmHg 87%
20:00 +11°C° 0.4 mm 0 mps 598 mmHg 87%
21:00 +11°C° 0.4 mm 1 mps 598 mmHg 87%
22:00 +10°C° 0.4 mm 1 mps 598 mmHg 88%
23:00 +10°C° 0 mm 1 mps 598 mmHg 88%

17 August, Monday

Time Temperature Precipitation Wind Pressure Humidity
00:00 +9°C° 0 mm 1 mps 597 mmHg 87%
01:00 +9°C° 0 mm 1 mps 597 mmHg 87%
02:00 +9°C° 0 mm 1 mps 597 mmHg 87%
03:00 +8°C° 0 mm 1 mps 596 mmHg 87%
04:00 +8°C° 0 mm 1 mps 596 mmHg 86%
05:00 +10°C° 0 mm 1 mps 597 mmHg 84%
06:00 +11°C° 0 mm 1 mps 597 mmHg 82%
07:00 +13°C° 0 mm 1 mps 598 mmHg 80%
08:00 +14°C° 0.2 mm 1 mps 599 mmHg 72%
09:00 +16°C° 0.2 mm 1 mps 599 mmHg 65%
10:00 +19°C° 0.2 mm 1 mps 600 mmHg 57%
11:00 +18°C° 1 mm 1 mps 599 mmHg 63%
12:00 +16°C° 1 mm 2 mps 599 mmHg 68%
13:00 +15°C° 1 mm 2 mps 598 mmHg 74%
14:00 +14°C° 1.9 mm 2 mps 598 mmHg 78%
15:00 +14°C° 1.9 mm 2 mps 597 mmHg 82%
16:00 +13°C° 1.9 mm 1 mps 597 mmHg 86%
17:00 +12°C° 1.2 mm 1 mps 597 mmHg 89%
18:00 +11°C° 1.2 mm 1 mps 596 mmHg 93%
19:00 +10°C° 1.2 mm 1 mps 596 mmHg 97%
20:00 +10°C° 1.6 mm 1 mps 596 mmHg 97%
21:00 +10°C° 1.6 mm 1 mps 597 mmHg 97%
22:00 +8°C° 1.6 mm 2 mps 597 mmHg 98%
23:00 +8°C° 0.9 mm 2 mps 597 mmHg 98%

18 August, Tuesday

Time Temperature Precipitation Wind Pressure Humidity
00:00 +9°C° 0.9 mm 1 mps 597 mmHg 97%
01:00 +9°C° 0.9 mm 1 mps 597 mmHg 97%
02:00 +9°C° 0.1 mm 1 mps 596 mmHg 97%
03:00 +8°C° 0.1 mm 1 mps 596 mmHg 97%
04:00 +8°C° 0.1 mm 1 mps 596 mmHg 96%
05:00 +7°C° 0.3 mm 2 mps 596 mmHg 95%
06:00 +7°C° 0.3 mm 2 mps 596 mmHg 94%
07:00 +8°C° 0.3 mm 2 mps 597 mmHg 93%
08:00 +9°C° 0.1 mm 2 mps 597 mmHg 85%
09:00 +10°C° 0.1 mm 2 mps 598 mmHg 77%
10:00 +12°C° 0.1 mm 2 mps 599 mmHg 69%
11:00 +13°C° 0.1 mm 2 mps 599 mmHg 64%
12:00 +14°C° 0.1 mm 2 mps 599 mmHg 60%
13:00 +15°C° 0.1 mm 2 mps 599 mmHg 56%
14:00 +15°C° 0.1 mm 2 mps 599 mmHg 57%
15:00 +15°C° 0.1 mm 2 mps 599 mmHg 58%
16:00 +15°C° 0.1 mm 2 mps 598 mmHg 59%
17:00 +13°C° 0.1 mm 2 mps 598 mmHg 69%
18:00 +10°C° 0.1 mm 2 mps 597 mmHg 79%
19:00 +9°C° 0.1 mm 1 mps 597 mmHg 88%
20:00 +9°C° 0 mm 1 mps 597 mmHg 90%
21:00 +8°C° 0 mm 1 mps 597 mmHg 92%
22:00 +7°C° 0 mm 1 mps 597 mmHg 94%
23:00 +7°C° 0 mm 1 mps 597 mmHg 94%
Show more